TimeSAST,TemperatureF,Dew PointF,Humidity,Sea Level PressureIn,VisibilityMPH,Wind Direction,Wind SpeedMPH,Gust SpeedMPH,PrecipitationIn,Events,Conditions,WindDirDegrees,DateUTC
12:00 AM,48.2,44.6,87,30.33,6.2,NW,6.9,-,N/A,,Partly Cloudy,310,2013-04-09 22:00:00
1:00 AM,48.2,44.6,87,30.33,-9999.0,WNW,6.9,-,N/A,,Clear,300,2013-04-09 23:00:00
2:00 AM,47,44,84,30.38,19,NW,6.9,,,,,310,2013-04-10 00:00:00
2:00 AM,46.4,44.6,93,30.36,-9999.0,NW,6.9,-,N/A,,Clear,310,2013-04-10 00:00:00
3:00 AM,48.2,42.8,82,30.36,-9999.0,NW,5.8,-,N/A,,Clear,310,2013-04-10 01:00:00
4:00 AM,48.2,42.8,82,30.36,6.2,NW,6.9,-,N/A,,Partly Cloudy,310,2013-04-10 02:00:00
5:00 AM,48.2,42.8,82,30.36,6.2,WNW,8.1,-,N/A,,Partly Cloudy,300,2013-04-10 03:00:00
6:00 AM,48.2,42.8,82,30.36,6.2,WNW,8.1,-,N/A,,Partly Cloudy,300,2013-04-10 04:00:00
7:00 AM,48.2,42.8,82,30.39,6.2,NW,9.2,-,N/A,,Scattered Clouds,310,2013-04-10 05:00:00
8:00 AM,51,44,71,30.41,12,WNW,8.1,,,,Partly Cloudy,300,2013-04-10 06:00:00
8:00 AM,50.0,44.6,82,30.39,6.2,WNW,9.2,-,N/A,,Scattered Clouds,300,2013-04-10 06:00:00
9:00 AM,55.4,48.2,77,30.42,6.2,West,9.2,-,N/A,,Scattered Clouds,280,2013-04-10 07:00:00
10:00 AM,59.0,48.2,67,30.42,6.2,WSW,10.4,-,N/A,,Scattered Clouds,250,2013-04-10 08:00:00
11:00 AM,59,47,56,30.44,12,SW,11.5,,,,Mostly Cloudy,230,2013-04-10 09:00:00
11:00 AM,60.8,48.2,63,30.42,6.2,SW,12.7,-,N/A,,Mostly Cloudy,230,2013-04-10 09:00:00
1:00 PM,59.0,50.0,72,30.42,6.2,SSE,9.2,-,N/A,,Mostly Cloudy,160,2013-04-10 11:00:00
2:00 PM,59,49,59,30.42,12,SSE,10.4,,,,Mostly Cloudy,160,2013-04-10 12:00:00
2:00 PM,59.0,48.2,67,30.42,6.2,SSE,10.4,-,N/A,,Mostly Cloudy,160,2013-04-10 12:00:00
3:00 PM,59.0,48.2,67,30.42,6.2,SSE,10.4,-,N/A,,Mostly Cloudy,160,2013-04-10 13:00:00
4:00 PM,59.0,48.2,67,30.42,6.2,SSE,8.1,-,N/A,,Scattered Clouds,150,2013-04-10 14:00:00
5:00 PM,58,48,59,30.42,12,SSE,6.9,,,,Mostly Cloudy,160,2013-04-10 15:00:00
5:00 PM,59.0,48.2,67,30.39,6.2,SSE,6.9,-,N/A,,Scattered Clouds,160,2013-04-10 15:00:00
6:00 PM,57.2,48.2,72,30.42,6.2,SE,4.6,-,N/A,,Scattered Clouds,140,2013-04-10 16:00:00
7:00 PM,55.4,48.2,77,30.42,6.2,ESE,3.5,-,N/A,,Scattered Clouds,120,2013-04-10 17:00:00
8:00 PM,53,49,80,30.44,12,East,3.5,,,,Partly Cloudy,100,2013-04-10 18:00:00
8:00 PM,53.6,48.2,82,30.42,6.2,East,3.5,-,N/A,,Scattered Clouds,100,2013-04-10 18:00:00
9:00 PM,51.8,48.2,88,30.42,6.2,Variable,2.3,-,N/A,,Mostly Cloudy,0,2013-04-10 19:00:00
10:00 PM,48.2,44.6,87,30.42,6.2,North,4.6,-,N/A,,Mostly Cloudy,360,2013-04-10 20:00:00
11:00 PM,48.2,44.6,87,30.42,6.2,North,2.3,-,N/A,,Mostly Cloudy,10,2013-04-10 21:00:00